Weather History for Spartanburg, SC

Change the Weather History Date:

Monday, June 24, 2013

  Actual Average (KGSP) Record (KGSP)
Temperature  
Mean Temperature 79 °F 78 °F  
Max Temperature 87 °F 89 °F 100 °F (1952)
Min Temperature 71 °F 68 °F 51 °F (1915)
Degree Days  
Heating Degree Days 0 0  
Month to date heating degree days 0  
Since 1 June heating degree days 0  
Since 1 July heating degree days 3044  
Cooling Degree Days 14 13  
Month to date cooling degree days 267  
Year to date cooling degree days 468  
Since 1 June cooling degree days 267  
Growing Degree Days 29 (Base 50)    
Moisture  
Dew Point 72 °F    
Average Humidity 83    
Maximum Humidity 100    
Minimum Humidity 58    
Precipitation  
Precipitation 0.00 in 0.13 in 1.87 in (1980)
Month to date precipitation 3.01  
Year to date precipitation 22.44  
Snow  
Snow 0.00 in 0.00 in 0.00 in ()
Month to date snowfall 0.0  
Since 1 June snowfall 0.0  
Since 1 July snowfall 4.7  
Snow Depth -    
Sea Level Pressure  
Sea Level Pressure 30.18 in    
Wind  
Wind Speed 2 mph (SW)    
Max Wind Speed 8 mph    
Max Gust Speed -    
Visibility 10 miles    
Events Rain , Thunderstorm    
T = Trace of Precipitation, MM = Missing Value Source: NWS Daily Summary

Daily Weather History Graph

Daily Weather History Graph

Search for Another Location

Airport:

Trip Planner

Search our weather history database for the weather conditions in past years. The results will help you decide how hot, cold, wet, or windy it might be!

Date:

Astronomy

Jun. 24, 2013 Rise Set
Actual Time 6:15 AM EDT 8:45 PM EDT
Civil Twilight 5:45 AM EDT 9:15 PM EDT
Nautical Twilight 5:08 AM EDT 9:51 PM EDT
Astronomical Twilight 4:28 AM EDT 10:32 PM EDT
Moon 9:52 PM EDT (6/24) 7:37 AM EDT (6/24)
Length of Visible Light 15h 29m
Length of Day
14h 30m
Full, 98% of the Moon is Illuminated
Jun 24
Full
Jun 30
Last Quarter
Jul 8
New
Jul 15
First Quarter
Jul 22
Full

Hourly Weather History & Observations

Time (EDT) Temp. Heat Index Dew Point Humidity Pressure Visibility Wind Dir Wind Speed Gust Speed Precip Events Conditions
12:15 AM 71.6 °F - 71.6 °F 100% 30.22 in 10.0 mi North 3.5 mph - N/A   Clear
12:35 AM 71.6 °F - 71.6 °F 100% 30.21 in 10.0 mi Calm Calm - N/A   Mostly Cloudy
12:55 AM 71.6 °F - 71.6 °F 100% 30.21 in 10.0 mi Calm Calm - N/A   Mostly Cloudy
1:15 AM 71.6 °F - 71.6 °F 100% 30.21 in 10.0 mi Calm Calm - N/A   Mostly Cloudy
1:35 AM 71.6 °F - 71.6 °F 100% 30.21 in 10.0 mi Calm Calm - N/A Thunderstorm Mostly Cloudy
1:55 AM 71.6 °F - 71.6 °F 100% 30.20 in 10.0 mi Calm Calm - N/A   Mostly Cloudy
2:15 AM 71.6 °F - 71.6 °F 100% 30.20 in 10.0 mi Calm Calm - N/A Rain Light Rain
2:35 AM 71.6 °F - 71.6 °F 100% 30.21 in 1.2 mi West 3.5 mph - N/A Rain , Thunderstorm Light Thunderstorms and Rain
2:55 AM 71.6 °F - 71.6 °F 100% 30.21 in 0.8 mi Calm Calm - N/A Rain , Thunderstorm Heavy Thunderstorms and Rain
3:15 AM 73.4 °F - 73.4 °F 100% 30.20 in 5.0 mi West 5.8 mph - N/A Rain Light Rain
3:35 AM 71.6 °F - 71.6 °F 100% 30.19 in 10.0 mi SW 4.6 mph - N/A   Drizzle
3:55 AM 71.6 °F - 71.6 °F 100% 30.19 in 10.0 mi SW 3.5 mph - N/A   Scattered Clouds
4:15 AM 71.6 °F - 71.6 °F 100% 30.19 in 10.0 mi WSW 3.5 mph - N/A   Scattered Clouds
4:35 AM 71.6 °F - 71.6 °F 100% 30.19 in 10.0 mi SW 3.5 mph - N/A Rain Light Rain
4:55 AM 71.6 °F - 71.6 °F 100% 30.18 in 10.0 mi Calm Calm - N/A   Clear
5:15 AM 71.6 °F - 71.6 °F 100% 30.18 in 10.0 mi Calm Calm - N/A   Clear
5:35 AM 71.6 °F - 71.6 °F 100% 30.19 in 10.0 mi Calm Calm - N/A   Clear
5:55 AM 71.6 °F - 71.6 °F 100% 30.20 in 10.0 mi Calm Calm - N/A   Scattered Clouds
6:15 AM 71.6 °F - 71.6 °F 100% 30.21 in 7.0 mi Calm Calm - N/A   Overcast
6:35 AM 71.6 °F - 71.6 °F 100% 30.21 in 10.0 mi Calm Calm - N/A   Overcast
6:55 AM 71.6 °F - 71.6 °F 100% 30.22 in 7.0 mi Calm Calm - N/A   Overcast
7:15 AM 71.6 °F - 71.6 °F 100% 30.22 in 10.0 mi Calm Calm - N/A   Overcast
7:35 AM 71.6 °F - 71.6 °F 100% 30.22 in 10.0 mi Calm Calm - N/A   Mostly Cloudy
7:55 AM 71.6 °F - 71.6 °F 100% 30.22 in 10.0 mi Calm Calm - N/A   Scattered Clouds
8:15 AM 73.4 °F - 73.4 °F 100% 30.22 in 10.0 mi Calm Calm - N/A   Scattered Clouds
8:35 AM 73.4 °F - 73.4 °F 100% 30.22 in 10.0 mi Calm Calm - N/A   Clear
8:55 AM 77.0 °F - 73.4 °F 89% 30.22 in 10.0 mi Calm Calm - N/A   Clear
9:15 AM 77.0 °F - 73.4 °F 89% 30.23 in 10.0 mi WSW 4.6 mph - N/A   Scattered Clouds
9:35 AM 78.8 °F - 75.2 °F 89% 30.23 in 10.0 mi West 4.6 mph - N/A   Scattered Clouds
9:55 AM 78.8 °F - 73.4 °F 83% 30.23 in 10.0 mi West 4.6 mph - N/A   Scattered Clouds
10:15 AM 78.8 °F - 73.4 °F 83% 30.23 in 10.0 mi West 3.5 mph - N/A   Scattered Clouds
10:35 AM 80.6 °F 86.2 °F 75.2 °F 84% 30.23 in 10.0 mi Calm Calm - N/A   Scattered Clouds
10:55 AM 80.6 °F 85.4 °F 73.4 °F 79% 30.23 in 10.0 mi West 4.6 mph - N/A Thunderstorm Scattered Clouds
11:15 AM 82.4 °F 88.2 °F 73.4 °F 74% 30.24 in 10.0 mi SW 4.6 mph - N/A   Mostly Cloudy
11:35 AM 82.4 °F 88.2 °F 73.4 °F 74% 30.23 in 10.0 mi SW 4.6 mph - N/A   Mostly Cloudy
11:55 AM 82.4 °F 88.2 °F 73.4 °F 74% 30.23 in 10.0 mi Calm Calm - N/A   Scattered Clouds
12:15 PM 82.4 °F 88.2 °F 73.4 °F 74% 30.23 in 10.0 mi SW 3.5 mph - N/A   Clear
12:35 PM 82.4 °F 87.2 °F 71.6 °F 70% 30.22 in 10.0 mi SW 5.8 mph - N/A   Scattered Clouds
12:55 PM 86.0 °F 93.4 °F 73.4 °F 66% 30.21 in 10.0 mi Calm Calm - N/A   Scattered Clouds
1:15 PM 86.0 °F 91.8 °F 71.6 °F 62% 30.20 in 10.0 mi SW 5.8 mph - N/A Thunderstorm Mostly Cloudy
1:35 PM 86.0 °F 93.4 °F 73.4 °F 66% 30.20 in 10.0 mi SW 5.8 mph - N/A Thunderstorm Scattered Clouds
1:55 PM 86.0 °F 91.8 °F 71.6 °F 62% 30.19 in 10.0 mi SW 8.1 mph - N/A   Mostly Cloudy
2:15 PM 86.0 °F 91.8 °F 71.6 °F 62% 30.17 in 10.0 mi WSW 5.8 mph - N/A Thunderstorm Mostly Cloudy
2:35 PM 80.6 °F 84.6 °F 71.6 °F 74% 30.17 in 10.0 mi Calm Calm - N/A   Mostly Cloudy
2:55 PM 82.4 °F 87.2 °F 71.6 °F 70% 30.16 in 10.0 mi Calm Calm - N/A Thunderstorm Scattered Clouds
3:15 PM 84.2 °F 90.9 °F 73.4 °F 70% 30.15 in 10.0 mi SE 4.6 mph - N/A   Clear
3:35 PM 86.0 °F 93.4 °F 73.4 °F 66% 30.14 in 10.0 mi SE 6.9 mph - N/A   Clear
3:55 PM 87.8 °F 97.6 °F 75.2 °F 66% 30.13 in 10.0 mi SSW 5.8 mph - N/A   Clear
4:15 PM 87.8 °F 95.6 °F 73.4 °F 62% 30.13 in 10.0 mi SSW 4.6 mph - N/A   Clear
4:35 PM 87.8 °F 93.8 °F 71.6 °F 58% 30.14 in 10.0 mi SW 6.9 mph - N/A   Scattered Clouds
4:55 PM 87.8 °F 95.6 °F 73.4 °F 62% 30.13 in 10.0 mi SSE 5.8 mph - N/A   Scattered Clouds
5:15 PM 87.8 °F 95.6 °F 73.4 °F 62% 30.13 in 10.0 mi SSE 5.8 mph - N/A   Scattered Clouds
5:35 PM 86.0 °F 91.8 °F 71.6 °F 62% 30.13 in 10.0 mi SSW 5.8 mph - N/A   Scattered Clouds
5:55 PM 86.0 °F 93.4 °F 73.4 °F 66% 30.12 in 10.0 mi SSW 5.8 mph - N/A   Scattered Clouds
6:15 PM 86.0 °F 91.8 °F 71.6 °F 62% 30.12 in 10.0 mi SSW 6.9 mph - N/A   Clear
6:35 PM 86.0 °F 91.8 °F 71.6 °F 62% 30.13 in 10.0 mi SSW 3.5 mph - N/A   Clear
6:55 PM 86.0 °F 91.8 °F 71.6 °F 62% 30.13 in 10.0 mi SSW 4.6 mph - N/A   Clear
7:15 PM 86.0 °F 91.8 °F 71.6 °F 62% 30.12 in 10.0 mi SSW 4.6 mph - N/A   Clear
7:35 PM 86.0 °F 91.8 °F 71.6 °F 62% 30.12 in 10.0 mi SSW 4.6 mph - N/A   Clear
7:55 PM 82.4 °F 88.2 °F 73.4 °F 74% 30.13 in 10.0 mi SSE 6.9 mph - N/A Thunderstorm Scattered Clouds
8:15 PM 80.6 °F 84.6 °F 71.6 °F 74% 30.15 in 10.0 mi South 5.8 mph - N/A   Scattered Clouds
8:35 PM 78.8 °F - 71.6 °F 78% 30.15 in 10.0 mi South 3.5 mph - N/A   Scattered Clouds
8:55 PM 78.8 °F - 71.6 °F 78% 30.15 in 10.0 mi SSW 3.5 mph - N/A   Clear
9:15 PM 78.8 °F - 71.6 °F 78% 30.14 in 10.0 mi Calm Calm - N/A   Clear
9:35 PM 78.8 °F - 73.4 °F 83% 30.15 in 10.0 mi SSE 3.5 mph - N/A   Clear
9:55 PM 77.0 °F - 73.4 °F 89% 30.16 in 10.0 mi Calm Calm - N/A   Clear
10:15 PM 77.0 °F - 71.6 °F 83% 30.17 in 10.0 mi Calm Calm - N/A   Clear
10:35 PM 77.0 °F - 73.4 °F 89% 30.17 in 10.0 mi Calm Calm - N/A   Clear
10:55 PM 77.0 °F - 71.6 °F 83% 30.16 in 10.0 mi Calm Calm - N/A   Clear
11:15 PM 75.2 °F - 73.4 °F 94% 30.17 in 10.0 mi Calm Calm - N/A   Clear
11:35 PM 75.2 °F - 73.4 °F 94% 30.16 in 10.0 mi Calm Calm - N/A   Clear
11:55 PM 75.2 °F - 73.4 °F 94% 30.16 in 10.0 mi Calm Calm - N/A   Clear